Location: Richterswil
(47.2055°N, 8.7071°E)
Time: 04:16:07
(UTC+00:00)

IDEFIX/ARIANE 42P - Pass Details

Date: 07 June 2020
Orbit: 785 x 803 km, 98.4° (Epoch: 14 July)

Event Time Altitude Azimuth Distance (km) Brightness Sun altitude
Rises 02:45:56 0° 14° (NNE) 3,325 6.9 -6.6°
Reaches altitude 10° 02:48:18 10° 16° (NNE) 2,389 6.1 -6.3°
Maximum altitude 02:53:35 80° 104° (ESE) 816 2.8 -5.6°
Drops below altitude 10° 02:58:49 10° 191° (SSW) 2,361 4.6 -5.0°
Sets 03:01:08 0° 193° (SSW) 3,284 5.3 -4.7°
